2019-032A (44310 NORAD) Tracking and Keplerian Element Data

This shows tracking and keplerian element data for the satellite.

Feedback or suggestion? Click here.




ElementValue
Catalog44310
Name2019-032A
Epoch Orbit448
Epoch Day186.06861871
Epoch Year2019
RAAN144.2603
Inclination44.9836
Eccentricity0.0010784
Argument of Perigee129.261
Mean Anonmoly230.9207
Mean Motion14.98845569
Decay Rate-6.2E-07
L11 44310U 19032A 19186.06861871 -.00000062 00000-0 13407-4 0 9997
L22 44310 44.9836 144.2603 0010784 129.2610 230.9207 14.98845569 4487

Live tracking and technical data element details for 2019-032A (NORAD 44310). 2019-032A can be tracked NOW for your location showing map with azimuth and elevation plus other details from your city location.

Track the satellite on the map from your city or location and see movement details for azimuth, elevation, latitude, longitude, range, height, and movement on the map or in text.







IsCatalogInMostPopularTable: catalog: 44310, numindb: 13
Update: records affected: 1



GetName: 44310 2019-032A

Hit Count: updated at: Sun, 21 Jul 2019 21:13:00 GMT